Simultaneous Nadir Overpasses (SNOs) Predictions

Prediction of SNOs between NOAA-20 and NOAA-19 Satellite Orbit:

Table of predicted SNOs for the next 14.0 days since TLE Epoch: 3/27/2020
Index Date (NOAA-20) Time (NOAA-20) Lat,Lon (NOAA-20) SZA (NOAA-20 ) Date (NOAA-19) Time (NOAA-19) Lat,Lon (NOAA-19) SZA (NOAA-19 ) Distance(km) Time Diff (sec)
1 04/02/2020 20:21:01 -79.50, 20.75 103.97 04/02/2020 20:19:50 -79.48, 20.77 103.96 2.60 71
2 04/02/2020 21:11:46 79.49,-171.84 76.00 04/02/2020 21:10:48 79.50,-171.79 76.03 1.23 58
3 04/02/2020 22:02:31 -79.51, -4.66 103.99 04/02/2020 22:01:50 -79.50, -4.54 103.99 2.43 41
4 04/02/2020 22:53:16 79.49, 162.76 75.98 04/02/2020 22:52:49 79.49, 162.61 76.00 3.05 27
5 04/02/2020 23:44:01 -79.51, -30.06 104.01 04/02/2020 23:43:51 -79.49, -30.14 104.02 2.96 10
6 04/03/2020 00:34:46 79.50, 137.35 75.96 04/03/2020 00:34:49 79.51, 137.30 75.97 1.54 3
7 04/03/2020 01:25:31 -79.51, -55.46 104.04 04/03/2020 01:25:51 -79.51, -55.46 104.05 0.70 20
8 04/03/2020 02:16:16 79.50, 111.95 75.93 04/03/2020 02:16:49 79.53, 111.99 75.94 2.83 33
9 04/03/2020 03:07:01 -79.52, -80.86 104.06 04/03/2020 03:07:51 -79.53, -80.78 104.08 1.95 50
10 04/03/2020 03:57:47 79.54, 86.28 75.97 04/03/2020 03:58:50 79.52, 86.39 75.91 3.29 63




NCC Satellite Simultaneous Nadir Overpasses (SNOs) Prediction Service
